User: anonymous   Login
Location: Unspecified
(0.0000°N, 0.0000°E)
Time: 23:34:19
(UTC+00:00)
Language:

DMSP B5D2-8 - Orbit

View from above orbital plane
View from above orbital plane
View from above satellite
View from above satellite

Ground track
Ground track

The orbit data is extracted from the following two-line orbital elements,

1 23533U 95015A   18056.20870474 0.00000030  00000-0  15272-4 0    05
2 23533  98.7926  58.4869 0007500 155.2192 204.7807 14.15839529    01
Epoch (UTC): 25 February 2018 05:00:32
Eccentricity: 0.0007500
inclination: 98.7926°
perigee height: 834 km
apogee height: 845 km
right ascension of ascending node: 58.4869°
argument of perigee: 155.2192°
revolutions per day: 14.15839529
mean anomaly at epoch: 204.7807°
orbit number at epoch: 0

The dashed part of the orbit path shows where the satellite is in the earth's shadow,  

DLR